Vorticity
13 16 3 5 -1 5 -2 7 3 1 2 6 10 8 7 6 5 6 7 8 8 8
13 11 15 11 -3 -0 8 8 11 11 10 6 6 7 8 8 8 9 10 12 13 10
10 10 12 8 15 3 -6 0 2 5 7 7 8 7 8 9 11 12 11 9 11 12
6 8 7 10 5 2 3 2 8 8 6 7 9 12 13 13 10 9 10 11 11 12
9 9 8 6 3 2 5 8 5 6 6 10 11 8 7 6 7 8 10 11 12 12
7 5 5 6 8 7 6 5 11 10 7 4 5 6 8 10 10 12 13 14 13 13
8 8 8 11 12 11 8 6 6 8 9 9 10 13 13 12 13 13 13 11 11 11
10 8 7 6 7 9 9 9 9 8 9 9 10 11 12 12 13 13 14 13 12 12
7 9 11 11 11 12 12 13 12 13 13 13 15 14 14 14 14 15 14 14 14 13
10 9 9 10 10 11 12 13 14 15 15 14 14 13 13 14 13 17 17 17 15 17
10 13 15 16 16 16 16 16 16 15 14 13 13 13 13 17 15 18 18 16 15 15
13 14 14 14 14 14 14 14 11 11 11 11 10 13 18 25 23 18 18 20 15 19
16 17 16 13 14 15 14 13 13 10 10 15 19 26 26 30 13 1 12 16 19 20
13 14 13 14 18 15 12 11 15 20 25 26 29 37 34 23 5 30 9 8 16 24
Height
5697 5692 5691 5688 5686 5683 5680 5677 5675 5673 5669 5665 5663 5661 5657 5655 5654 5653 5651 5649 5648 5646
5681 5678 5676 5674 5671 5668 5664 5661 5658 5654 5650 5647 5644 5641 5639 5638 5635 5633 5631 5629 5627 5625
5668 5665 5663 5659 5656 5652 5648 5644 5640 5636 5633 5629 5626 5623 5621 5618 5616 5614 5612 5611 5609 5606
5657 5653 5649 5645 5640 5636 5632 5627 5622 5618 5613 5609 5606 5602 5599 5598 5595 5594 5592 5590 5588 5586
5644 5639 5634 5629 5625 5619 5614 5608 5602 5597 5593 5589 5586 5582 5579 5576 5573 5571 5570 5568 5566 5564
5628 5623 5618 5612 5607 5602 5596 5590 5585 5579 5575 5571 5567 5563 5559 5555 5552 5549 5548 5547 5545 5544
5614 5608 5602 5595 5589 5583 5578 5572 5567 5562 5556 5551 5546 5542 5538 5534 5530 5528 5526 5524 5523 5523
5598 5591 5585 5577 5570 5563 5557 5551 5544 5538 5532 5527 5523 5520 5516 5512 5508 5506 5504 5502 5501 5501
5580 5572 5563 5555 5547 5539 5532 5525 5519 5512 5506 5501 5497 5494 5492 5486 5483 5482 5481 5480 5479 5479
5559 5550 5541 5532 5523 5515 5507 5499 5493 5487 5480 5475 5471 5466 5464 5460 5457 5456 5457 5456 5456 5456
5538 5528 5518 5509 5499 5490 5482 5474 5467 5462 5456 5448 5446 5441 5437 5435 5432 5431 5432 5432 5433 5435
5516 5506 5496 5486 5476 5466 5458 5450 5441 5434 5429 5421 5419 5415 5411 5409 5408 5409 5409 5410 5411 5413
5494 5483 5473 5462 5452 5443 5432 5424 5415 5408 5400 5393 5387 5386 5383 5384 5386 5387 5389 5390 5391 5394
5474 5463 5451 5440 5428 5418 5408 5397 5388 5379 5372 5365 5359 5358 5357 5359 5363 5366 5369 5373 5375 5377